Tracking 19706 objects as of 15-Jun-2019
HD Live streaming from Space Station
objects crossing your sky now

CZ-4 DEB

Track CZ-4 DEB now!
10-day predictions


NORAD ID: 26336
Int'l Code: 1999-057HV
Perigee: 671.0 km
Apogee: 773.5 km
Inclination: 98.4 °
Period: 99.1 minutes
Semi major axis: 7093 km
RCS: 0.009 m2 (small)
Launch date: October 14, 1999
Source: People's Republic of China (PRC)
Launch site: Taiyaun Space Center, China (TSC)

Note: This is SATELLITE DEBRIS
aabbcc
Your satellite tracking list
Your tracking list is empty




NASA's NSSDC Master Catalog

Two Line Element Set (TLE):
1 26336U 99057HV  19165.89448592 +.00000360 +00000-0 +95532-4 0  9998
2 26336 098.4200 148.4236 0072217 190.0592 169.9162 14.53229294012398
Source of the keplerian elements: AFSPC